This is the latest recevied weather packets stored in our database for station/object DB0LHR-6. If no packets are shown the sender has not sent any weather packets the latest 10 day(s).
| Time | Temp. | Humidity | Pressure | Rain* | Wind** | Luminosity | Snow |
|---|---|---|---|---|---|---|---|
| 1777618042 | 15° C | 14% | 1024 hPa | 0 mm | - | - | - |
| 1777617142 | 13.89° C | 14% | 1024 hPa | 0 mm | - | - | - |
| 1777616242 | 13.33° C | 15% | 1024 hPa | 0 mm | - | - | - |
| 1777615343 | 12.22° C | 15% | 1024 hPa | 0 mm | - | - | - |
| 1777614442 | 11.11° C | 18% | 1024 hPa | 0 mm | - | - | - |
| 1777613542 | 10.56° C | 16% | 1024 hPa | 0 mm | - | - | - |
| 1777612642 | 10° C | 16% | 1024 hPa | 0 mm | - | - | - |
| 1777611742 | 9.44° C | 16% | 1024 hPa | 0 mm | - | - | - |
| 1777610842 | 9.44° C | 16% | 1024 hPa | 0 mm | - | - | - |
| 1777609942 | 9.44° C | 16% | 1024 hPa | 0 mm | - | - | - |
| 1777609042 | 9.44° C | 14% | 1024 hPa | 0 mm | - | - | - |
| 1777608142 | 9.44° C | 16% | 1024 hPa | 0 mm | - | - | - |
| 1777607243 | 8.89° C | 16% | 1024 hPa | 0 mm | - | - | - |
| 1777606342 | 9.44° C | 14% | 1024 hPa | 0 mm | - | - | - |
| 1777605442 | 9.44° C | 14% | 1024 hPa | 0 mm | - | - | - |
| 1777604542 | 10° C | 14% | 1024 hPa | 0 mm | - | - | - |
| 1777603642 | 10° C | 14% | 1024 hPa | 0 mm | - | - | - |
| 1777602742 | 10° C | 14% | 1024 hPa | 0 mm | - | - | - |
| 1777601842 | 10° C | 14% | 1024 hPa | 0 mm | - | - | - |
| 1777600942 | 10° C | 14% | 1024 hPa | 0 mm | - | - | - |
| 1777600043 | 10° C | 14% | 1024 hPa | 0 mm | - | - | - |
| 1777599143 | 10.56° C | 13% | 1024 hPa | 0 mm | - | - | - |
| 1777598243 | 11.11° C | 13% | 1024 hPa | 0 mm | - | - | - |
| 1777597342 | 11.11° C | 13% | 1024 hPa | 0 mm | - | - | - |
| 1777596442 | 11.11° C | 13% | 1024 hPa | 0 mm | - | - | - |
* Rain latest 24 hours (hover to see other rain measurements)
** Current wind speed in m/s (hover to see current wind gust speed)